Orbital Elements at Epoch 2459000.5 (2020-May-31.0) TDB
Reference: JPL 21 (heliocentric ecliptic J2000)
Element | Value | Uncertainty (1-sigma) | Units |
e | .05762175820562487 | 3.9292e-08 | |
a | 3.113635864656024 | 2.6698e-08 | au |
q | 2.934222691722453 | 1.357e-07 | au |
i | 10.37801207180201 | 4.7971e-06 | deg |
node | 151.8660420815318 | 2.9661e-05 | deg |
peri | 322.1023732575207 | 6.6061e-05 | deg |
M | 339.7913172427745 | 5.7057e-05 | deg |
tp | 2459113.151158916668 (2020-Sep-20.65115892) | 0.00031787 | TDB |
period | 2006.781822308553 5.49 | 2.5811e-05 7.067e-08 | d yr |
n | .1793916986879345 | 2.3073e-09 | deg/d |
Q | 3.293049037589596 | 2.8236e-08 | au |
|
| | Orbit Determination Parameters
Additional Information
|